Location: Joplin, MO
(37.0842°N, 94.5133°W)
Time: 21:24:42
(UTC+02:00)

Transit 2A Rocket - Pass Details

Date: 02 April 2023
Orbit: 584 x 914 km, 66.7° (Epoch: 09 June)

Event Time Altitude Azimuth Distance (km) Brightness Sun altitude
Rises 03:24:31 0° 327° (NNW) 3,544 9.2 -9.5°
Reaches altitude 10° 03:27:09 10° 323° (NW) 2,582 8.5 -10.0°
Maximum altitude 03:32:58 52° 248° (WSW) 1,065 6.1 -11.1°
Drops below altitude 10° 03:38:25 10° 173° (S) 2,415 7.4 -12.2°
Sets 03:40:49 0° 169° (SSE) 3,295 8.0 -12.6°
